sat.trackr.live / text

‹ back to catalog

UNKNOWN

NORAD 82524

UNKNOWN UNKNOWN UNKNOWN

§ Identity

Operator
Country
Launch date
Launch site
Launch vehicle
Mass (kg)
RCS (m²)

External: N2YO · Heavens-Above

§ Orbital elements

Epoch: 2026-09-18T14:50:22.252704Z

Period
100.18 min
Inclination
73.2822°
Eccentricity
0.0128057
Mean motion
14.37391411 rev/d
Perigee alt
675.6 km
Apogee alt
858.6 km
Semi-major
7,145.3 km
B*
5.1934e-4
RAAN
3.7547°
Arg perigee
119.6714°
Mean anomaly
303.1362°
Rev number
61,722

§ Raw data

UNKNOWN1 82524U          26261.61831311  .00001673  00000+0  51934-3 0  99932 82524  73.2822   3.7547 0128057 119.6714 303.1362 14.37391411617225

JSON: /api/v1/satellites/82524 · /tle

For live sub-satellite position, see the globe view (requires WebGL).

§ Visibility from observer

Set your observer location to see the next 7 days of passes ≥ 10°. The values pass through the URL so the page stays shareable.

No JS? Fill the form by hand. The geolocation button needs JavaScript.